Weather History for Lexington, KY

Change the Weather History Date:

Sunday, April 20, 2014

  Actual Average Record
Temperature  
Mean Temperature 61 °F 57 °F  
Max Temperature 76 °F 67 °F 85 °F (1957)
Min Temperature 46 °F 46 °F 25 °F (1983)
Degree Days  
Heating Degree Days 4 9  
Month to date heating degree days 168 236  
Since 1 July heating degree days 4727 4412  
Cooling Degree Days 0 1  
Month to date cooling degree days 11 11  
Year to date cooling degree days 11 13  
Growing Degree Days 10 (Base 50)    
Moisture  
Dew Point 38 °F    
Average Humidity 46    
Maximum Humidity 67    
Minimum Humidity 25    
Precipitation  
Precipitation 0.00 in 0.13 in 1.83 in (1920)
Month to date precipitation 2.00 2.28  
Year to date precipitation 11.93 12.75  
Snow  
Snow 0.00 in 0.00 in 0.10 in (1953)
Month to date snowfall 0.3 0.3  
Since 1 July snowfall 27.1 13.0  
Snow Depth 0.00 in    
Sea Level Pressure  
Sea Level Pressure 30.19 in    
Wind  
Wind Speed 4 mph (East)    
Max Wind Speed 10 mph    
Max Gust Speed 14 mph    
Visibility 10 miles    
Events      
T = Trace of Precipitation, MM = Missing Value Source: NWS Daily Summary

Daily Weather History Graph

Daily Weather History Graph

Search for Another Location

Airport:

Trip Planner

Search our weather history database for the weather conditions in past years. The results will help you decide how hot, cold, wet, or windy it might be!

Date:

Astronomy

Apr. 20, 2014 Rise Set
Actual Time 6:56 AM EDT 8:19 PM EDT
Civil Twilight 6:28 AM EDT 8:46 PM EDT
Nautical Twilight 5:55 AM EDT 9:19 PM EDT
Astronomical Twilight 5:21 AM EDT 9:54 PM EDT
Moon 12:56 AM EDT (4/20) 11:17 AM EDT (4/20)
Length of Visible Light 14h 18m
Length of Day
13h 23m
Waning Gibbous, 69% of the Moon is Illuminated
Apr 20
Waning Gibbous
Apr 22
Last Quarter
Apr 29
New
May 6
First Quarter
May 14
Full

Hourly Weather History & Observations

Time (EDT) Temp. Dew Point Humidity Pressure Visibility Wind Dir Wind Speed Gust Speed Precip Events Conditions
12:54 AM 50.0 °F 36.0 °F 59% 30.21 in 10.0 mi NNE 8.1 mph - N/A   Clear
1:54 AM 50.0 °F 37.0 °F 61% 30.20 in 10.0 mi NE 10.4 mph - N/A   Clear
2:54 AM 48.0 °F 36.0 °F 63% 30.19 in 10.0 mi ENE 9.2 mph - N/A   Clear
3:54 AM 46.9 °F 36.0 °F 66% 30.19 in 10.0 mi NE 6.9 mph - N/A   Clear
4:54 AM 46.9 °F 36.0 °F 66% 30.20 in 10.0 mi NE 4.6 mph - N/A   Clear
5:54 AM 46.9 °F 35.1 °F 63% 30.22 in 10.0 mi East 6.9 mph - N/A   Clear
6:54 AM 46.9 °F 34.0 °F 61% 30.23 in 10.0 mi ENE 5.8 mph - N/A   Clear
7:54 AM 50.0 °F 37.9 °F 63% 30.25 in 10.0 mi ENE 5.8 mph - N/A   Clear
8:54 AM 57.9 °F 37.0 °F 46% 30.25 in 10.0 mi East 5.8 mph - N/A   Clear
9:54 AM 63.0 °F 37.0 °F 38% 30.25 in 10.0 mi SE 4.6 mph - N/A   Clear
10:54 AM 66.0 °F 39.0 °F 37% 30.25 in 10.0 mi South 4.6 mph - N/A   Clear
11:54 AM 68.0 °F 41.0 °F 37% 30.24 in 10.0 mi Calm Calm - N/A   Clear
12:54 PM 72.0 °F 39.0 °F 30% 30.23 in 10.0 mi Calm Calm - N/A   Clear
1:54 PM 72.0 °F 36.0 °F 27% 30.21 in 10.0 mi South 4.6 mph - N/A   Clear
2:54 PM 73.9 °F 37.0 °F 26% 30.19 in 10.0 mi North - - N/A   Clear
3:54 PM 75.0 °F 37.9 °F 26% 30.17 in 10.0 mi WSW 4.6 mph - N/A   Clear
4:54 PM 75.0 °F 39.0 °F 27% 30.15 in 10.0 mi SSW 6.9 mph - N/A   Clear
5:54 PM 75.0 °F 39.9 °F 28% 30.14 in 10.0 mi Calm Calm - N/A   Clear
6:54 PM 75.2 °F 37.4 °F 25% 30.13 in 10.0 mi Calm Calm - N/A   Clear
7:54 PM 73.0 °F 37.0 °F 27% 30.12 in 10.0 mi Calm Calm - N/A   Clear
8:54 PM 70.0 °F 37.9 °F 31% 30.12 in 10.0 mi NNE 3.5 mph - N/A   Clear
9:54 PM 64.0 °F 41.0 °F 43% 30.12 in 10.0 mi ENE 4.6 mph - N/A   Clear
10:54 PM 61.0 °F 45.0 °F 56% 30.12 in 10.0 mi Calm Calm - N/A   Clear
11:54 PM 57.9 °F 46.0 °F 65% 30.11 in 10.0 mi SE 3.5 mph - N/A   Clear